Location: Unspecified
(42.9300°N, 71.1866°W)
Time: 03:30:31
(UTC-04:00)

CZ-3 Stage 3 - Visible Passes

Search period start: 01 September 2014 00:00
Search period end: 11 September 2014 00:00
Orbit: 411 x 34838 km, 30.7° (Epoch: 30 August)

Date Brightness Start Highest point End Pass type
(mag) Time Alt. Az. Time Alt. Az. Time Alt. Az.
01 Sep 8.8 01:08:42 10° SSE 05:36:49 33° SSE 06:09:37 10° ESE visible
03 Sep 6.9 03:18:56 10° SSW 09:36:26 46° S 09:45:21 10° ESE visible
04 Sep 8.8 00:53:05 10° SSE 05:36:17 35° SSE 06:08:01 10° E visible
06 Sep 6.8 03:13:15 10° SSW 09:34:31 47° S 09:43:09 10° ESE visible
07 Sep 8.8 00:37:44 10° SSE 05:35:35 36° SSE 06:06:16 10° E visible
09 Sep 6.7 03:07:53 10° SSW 09:32:30 48° S 09:40:52 10° ESE visible
10 Sep 8.7 00:22:39 10° SSE 05:34:44 38° SSE 06:04:21 10° E visible
